When you browse on this site, cookies collect data to enhance your experience and personalize the content and advertising you see.
Visit our Privacy Policy to learn more. By continuing to use the site, you agree to this use of cookies and data.
  • In Latvia
  • List of Countries
  • For 7 days
  • Water Temperature
  • Satellite Maps
  • Weather Map
  • Weather Widgets
  • user-avatar
    Login

    Hourly Weather Malanje

    Today, 25 March, Monday

    Time Temperature Precipitation Wind Pressure Humidity
    00:00 +21°C° 0 mm 1 mps 665 mmHg 96%
    01:00 +21°C° 0 mm 1 mps 665 mmHg 96%
    02:00 +20°C° 0.3 mm 1 mps 665 mmHg 97%
    03:00 +20°C° 0.3 mm 1 mps 664 mmHg 97%
    04:00 +18°C° 0.3 mm 0 mps 664 mmHg 97%
    05:00 +18°C° 0.2 mm 0 mps 665 mmHg 97%
    06:00 +21°C° 0.2 mm 1 mps 665 mmHg 96%
    07:00 +21°C° 0.2 mm 1 mps 665 mmHg 95%
    08:00 +23°C° 0.5 mm 1 mps 666 mmHg 90%
    09:00 +25°C° 0.5 mm 1 mps 666 mmHg 85%
    10:00 +26°C° 0.5 mm 1 mps 667 mmHg 80%
    11:00 +28°C° 0.6 mm 1 mps 666 mmHg 72%
    12:00 +29°C° 0.6 mm 1 mps 666 mmHg 64%
    13:00 +31°C° 0.6 mm 1 mps 666 mmHg 56%
    14:00 +30°C° 0.1 mm 1 mps 665 mmHg 59%
    15:00 +30°C° 0.1 mm 1 mps 665 mmHg 61%
    16:00 +27°C° 0.1 mm 0 mps 664 mmHg 63%
    17:00 +27°C° 1.3 mm 1 mps 664 mmHg 70%
    18:00 +25°C° 1.3 mm 1 mps 664 mmHg 78%
    19:00 +23°C° 1.3 mm 1 mps 664 mmHg 85%
    20:00 +23°C° 1 mm 1 mps 664 mmHg 89%
    21:00 +22°C° 1 mm 1 mps 665 mmHg 92%
    22:00 +22°C° 1 mm 1 mps 665 mmHg 96%
    23:00 +21°C° 0.7 mm 1 mps 665 mmHg 96%

    Tomorrow, 26 March, Tuesday

    Time Temperature Precipitation Wind Pressure Humidity
    00:00 +21°C° 0.7 mm 1 mps 665 mmHg 97%
    01:00 +21°C° 0.7 mm 1 mps 665 mmHg 97%
    02:00 +21°C° 0.5 mm 1 mps 665 mmHg 97%
    03:00 +21°C° 0.5 mm 1 mps 664 mmHg 97%
    04:00 +21°C° 0.5 mm 1 mps 664 mmHg 97%
    05:00 +21°C° 0.2 mm 1 mps 664 mmHg 97%
    06:00 +19°C° 0.2 mm 0 mps 665 mmHg 97%
    07:00 +19°C° 0.2 mm 0 mps 665 mmHg 97%
    08:00 +21°C° 0.6 mm 1 mps 666 mmHg 96%
    09:00 +22°C° 0.6 mm 1 mps 666 mmHg 96%
    10:00 +22°C° 0.6 mm 1 mps 667 mmHg 95%
    11:00 +25°C° 0.9 mm 1 mps 666 mmHg 88%
    12:00 +25°C° 0.9 mm 0 mps 666 mmHg 81%
    13:00 +27°C° 0.9 mm 0 mps 666 mmHg 75%
    14:00 +26°C° 2.2 mm 0 mps 665 mmHg 76%
    15:00 +25°C° 2.2 mm 0 mps 665 mmHg 77%
    16:00 +27°C° 2.2 mm 1 mps 664 mmHg 78%
    17:00 +23°C° 0.5 mm 0 mps 664 mmHg 81%
    18:00 +21°C° 0.5 mm 0 mps 665 mmHg 85%
    19:00 +20°C° 0.5 mm 0 mps 665 mmHg 88%
    20:00 +21°C° 0 mm 1 mps 665 mmHg 91%
    21:00 +21°C° 0 mm 1 mps 665 mmHg 94%
    22:00 +20°C° 0 mm 1 mps 666 mmHg 96%
    23:00 +20°C° 0 mm 1 mps 666 mmHg 97%

    Day after tomorrow, 27 March, Wednesday

    Time Temperature Precipitation Wind Pressure Humidity
    00:00 +20°C° 0 mm 1 mps 665 mmHg 98%
    01:00 +20°C° 0 mm 1 mps 665 mmHg 99%
    02:00 +20°C° 0 mm 1 mps 665 mmHg 99%
    03:00 +20°C° 0 mm 1 mps 664 mmHg 98%
    04:00 +17°C° 0 mm 0 mps 664 mmHg 98%
    05:00 +18°C° 0 mm 0 mps 665 mmHg 97%
    06:00 +18°C° 0 mm 0 mps 666 mmHg 96%
    07:00 +19°C° 0 mm 0 mps 666 mmHg 95%
    08:00 +20°C° 0.1 mm 0 mps 667 mmHg 91%
    09:00 +22°C° 0.1 mm 0 mps 667 mmHg 86%
    10:00 +25°C° 0.1 mm 1 mps 668 mmHg 81%
    11:00 +25°C° 0.4 mm 0 mps 667 mmHg 76%
    12:00 +27°C° 0.4 mm 0 mps 667 mmHg 70%
    13:00 +29°C° 0.4 mm 0 mps 667 mmHg 64%
    14:00 +28°C° 1 mm 0 mps 666 mmHg 66%
    15:00 +27°C° 1 mm 0 mps 666 mmHg 67%
    16:00 +29°C° 1 mm 1 mps 665 mmHg 69%
    17:00 +25°C° 0.2 mm 0 mps 665 mmHg 74%
    18:00 +23°C° 0.2 mm 0 mps 665 mmHg 79%
    19:00 +21°C° 0.2 mm 0 mps 666 mmHg 84%
    20:00 +23°C° 0.1 mm 1 mps 666 mmHg 84%
    21:00 +23°C° 0.1 mm 1 mps 667 mmHg 85%
    22:00 +22°C° 0.1 mm 1 mps 667 mmHg 85%
    23:00 +22°C° 0.2 mm 1 mps 667 mmHg 86%

    28 March, Thursday

    Time Temperature Precipitation Wind Pressure Humidity
    00:00 +22°C° 0.2 mm 1 mps 666 mmHg 87%
    01:00 +22°C° 0.2 mm 1 mps 666 mmHg 88%
    02:00 +22°C° 0 mm 1 mps 666 mmHg 89%
    03:00 +20°C° 0 mm 2 mps 665 mmHg 90%
    04:00 +20°C° 0 mm 2 mps 665 mmHg 91%
    05:00 +20°C° 0 mm 2 mps 666 mmHg 91%
    06:00 +20°C° 0 mm 2 mps 666 mmHg 91%
    07:00 +20°C° 0 mm 2 mps 667 mmHg 90%
    08:00 +21°C° 0 mm 3 mps 667 mmHg 87%
    09:00 +22°C° 0 mm 3 mps 667 mmHg 84%
    10:00 +24°C° 0 mm 3 mps 668 mmHg 81%
    11:00 +25°C° 0 mm 3 mps 667 mmHg 78%
    12:00 +26°C° 0 mm 3 mps 666 mmHg 74%
    13:00 +27°C° 0 mm 2 mps 665 mmHg 71%
    14:00 +26°C° 0 mm 2 mps 665 mmHg 74%
    15:00 +26°C° 0 mm 2 mps 665 mmHg 77%
    16:00 +26°C° 0 mm 2 mps 664 mmHg 80%
    17:00 +25°C° 0 mm 1 mps 665 mmHg 83%
    18:00 +23°C° 0 mm 1 mps 665 mmHg 87%
    19:00 +22°C° 0 mm 1 mps 665 mmHg 90%
    20:00 +22°C° 0 mm 1 mps 665 mmHg 90%
    21:00 +22°C° 0 mm 1 mps 666 mmHg 89%
    22:00 +21°C° 0 mm 1 mps 666 mmHg 89%
    23:00 +21°C° 0 mm 1 mps 666 mmHg 90%

    29 March, Friday

    Time Temperature Precipitation Wind Pressure Humidity
    00:00 +21°C° 0 mm 1 mps 666 mmHg 91%
    01:00 +21°C° 0 mm 1 mps 665 mmHg 92%
    02:00 +21°C° 0 mm 1 mps 665 mmHg 92%
    03:00 +21°C° 0 mm 1 mps 665 mmHg 92%
    04:00 +21°C° 0 mm 1 mps 664 mmHg 92%
    05:00 +21°C° 0 mm 1 mps 665 mmHg 92%
    06:00 +21°C° 0 mm 1 mps 666 mmHg 91%
    07:00 +21°C° 0 mm 1 mps 666 mmHg 90%
    08:00 +23°C° 0.4 mm 2 mps 666 mmHg 87%
    09:00 +25°C° 0.4 mm 2 mps 667 mmHg 83%
    10:00 +27°C° 0.4 mm 2 mps 667 mmHg 79%
    11:00 +27°C° 0.4 mm 2 mps 666 mmHg 75%
    12:00 +28°C° 0.4 mm 2 mps 666 mmHg 71%
    13:00 +29°C° 0.4 mm 2 mps 665 mmHg 66%
    14:00 +28°C° 1 mm 2 mps 664 mmHg 73%
    15:00 +27°C° 1 mm 2 mps 664 mmHg 79%
    16:00 +26°C° 1 mm 1 mps 664 mmHg 85%
    17:00 +25°C° 0.1 mm 1 mps 664 mmHg 87%
    18:00 +24°C° 0.1 mm 1 mps 664 mmHg 89%
    19:00 +21°C° 0.1 mm 0 mps 665 mmHg 91%
    20:00 +20°C° 0 mm 0 mps 665 mmHg 89%
    21:00 +20°C° 0 mm 0 mps 665 mmHg 88%
    22:00 +20°C° 0 mm 0 mps 666 mmHg 87%
    23:00 +19°C° 0.2 mm 0 mps 665 mmHg 90%

    30 March, Saturday

    Time Temperature Precipitation Wind Pressure Humidity
    00:00 +19°C° 0.2 mm 0 mps 665 mmHg 93%
    01:00 +18°C° 0.2 mm 0 mps 665 mmHg 96%
    02:00 +18°C° 0.3 mm 0 mps 664 mmHg 96%
    03:00 +18°C° 0.3 mm 0 mps 664 mmHg 96%
    04:00 +19°C° 0.3 mm 0 mps 664 mmHg 96%
    05:00 +19°C° 0.2 mm 0 mps 665 mmHg 96%
    06:00 +19°C° 0.2 mm 0 mps 665 mmHg 95%
    07:00 +19°C° 0.2 mm 0 mps 666 mmHg 95%
    08:00 +22°C° 0.1 mm 1 mps 666 mmHg 92%
    09:00 +23°C° 0.1 mm 1 mps 666 mmHg 89%
    10:00 +24°C° 0.1 mm 1 mps 667 mmHg 87%
    11:00 +23°C° 0.5 mm 0 mps 666 mmHg 81%
    12:00 +25°C° 0.5 mm 0 mps 666 mmHg 75%
    13:00 +26°C° 0.5 mm 0 mps 665 mmHg 69%
    14:00 +28°C° 0.2 mm 1 mps 665 mmHg 70%
    15:00 +28°C° 0.2 mm 1 mps 665 mmHg 70%
    16:00 +27°C° 0.2 mm 2 mps 665 mmHg 71%
    17:00 +26°C° 1.1 mm 1 mps 665 mmHg 77%
    18:00 +24°C° 1.1 mm 1 mps 665 mmHg 84%
    19:00 +22°C° 1.1 mm 1 mps 665 mmHg 91%
    20:00 +22°C° 0 mm 1 mps 665 mmHg 92%
    21:00 +22°C° 0 mm 1 mps 665 mmHg 92%
    22:00 +21°C° 0 mm 1 mps 665 mmHg 92%
    23:00 +21°C° 0 mm 1 mps 665 mmHg 93%
    Show more